Year,Month,Day,Hour,Minute,Value (Times are PST for temperature in C)
2008,11,19,00,00,5.10
2008,11,19,00,01,5.10
2008,11,19,00,02,5.10
2008,11,19,00,03,5.10
2008,11,19,00,04,5.10
2008,11,19,00,05,5.10
2008,11,19,00,06,5.20
2008,11,19,00,07,5.20
2008,11,19,00,08,5.20
2008,11,19,00,09,5.20
2008,11,19,00,10,5.20
2008,11,19,00,11,5.20
2008,11,19,00,12,5.20
2008,11,19,01,02,5.10
2008,11,19,01,03,5.10
2008,11,19,01,04,5.10
2008,11,19,01,05,5.10
2008,11,19,01,06,5.00
2008,11,19,01,07,4.90
2008,11,19,01,08,4.90
2008,11,19,01,09,4.90
2008,11,19,01,10,4.90
2008,11,19,01,11,4.80
2008,11,19,01,12,4.80
2008,11,19,01,13,4.80
2008,11,19,01,14,4.80
2008,11,19,01,15,4.70
2008,11,19,01,16,4.70
2008,11,19,01,17,4.70
2008,11,19,01,18,4.70
2008,11,19,01,19,4.70
2008,11,19,01,20,4.70
2008,11,19,01,21,4.70
2008,11,19,01,22,4.70
2008,11,19,01,23,4.70
2008,11,19,01,24,4.70
2008,11,19,01,25,4.70
2008,11,19,01,26,4.60
2008,11,19,01,27,4.60
2008,11,19,01,28,4.60
2008,11,19,01,29,4.50
2008,11,19,01,30,4.40
2008,11,19,01,31,4.30
2008,11,19,01,32,4.20
2008,11,19,01,33,4.20
2008,11,19,01,34,4.20
2008,11,19,01,35,4.20
2008,11,19,01,36,4.20
2008,11,19,01,37,4.20
2008,11,19,01,38,4.20
2008,11,19,01,39,4.10
2008,11,19,01,40,4.10
2008,11,19,01,41,4.10
2008,11,19,01,42,4.10
2008,11,19,01,43,4.20
2008,11,19,01,44,4.20
2008,11,19,01,45,4.20
2008,11,19,01,46,4.20
2008,11,19,01,47,4.20
2008,11,19,01,48,4.20
2008,11,19,01,49,4.20
2008,11,19,01,50,4.20
2008,11,19,01,51,4.20
2008,11,19,01,52,4.20
2008,11,19,01,53,4.20
2008,11,19,01,54,4.20
2008,11,19,01,55,4.20
2008,11,19,01,56,4.20
2008,11,19,01,57,4.20
2008,11,19,01,58,4.20
2008,11,19,01,59,4.20
2008,11,19,02,00,4.10
2008,11,19,02,01,4.10
2008,11,19,02,02,4.10
2008,11,19,02,03,4.10
2008,11,19,02,04,4.10
2008,11,19,02,05,4.10
2008,11,19,02,06,4.10
2008,11,19,02,07,4.10
2008,11,19,02,08,4.10
2008,11,19,02,09,4.00
2008,11,19,02,10,4.10
2008,11,19,02,11,4.10
2008,11,19,02,12,4.10
2008,11,19,02,13,4.20
2008,11,19,02,14,4.20
2008,11,19,02,15,4.20
2008,11,19,02,16,4.20
2008,11,19,02,17,4.20
2008,11,19,02,18,4.20
2008,11,19,02,19,4.20
2008,11,19,02,20,4.20
2008,11,19,02,21,4.20
2008,11,19,02,22,4.20
2008,11,19,02,23,4.20
2008,11,19,02,24,4.10
2008,11,19,02,25,4.10
2008,11,19,02,26,4.10
2008,11,19,02,27,4.00
2008,11,19,02,28,4.00
2008,11,19,02,29,3.90
2008,11,19,02,30,3.90
2008,11,19,02,31,3.90
2008,11,19,02,32,3.90
2008,11,19,02,33,3.90
2008,11,19,02,34,3.90
2008,11,19,02,35,3.90
2008,11,19,02,36,3.80
2008,11,19,02,37,3.80
2008,11,19,02,38,3.80
2008,11,19,02,39,3.70
2008,11,19,02,40,3.70
2008,11,19,02,41,3.70
2008,11,19,02,42,3.70
2008,11,19,02,43,3.80
2008,11,19,02,44,3.80
2008,11,19,02,45,3.80
2008,11,19,02,46,3.80
2008,11,19,02,47,3.90
2008,11,19,02,48,4.00
2008,11,19,02,49,4.10
2008,11,19,02,50,4.20
2008,11,19,02,51,4.30
2008,11,19,02,52,4.40
2008,11,19,02,53,4.40
2008,11,19,02,54,4.50
2008,11,19,02,55,4.50
2008,11,19,02,56,4.60
2008,11,19,02,57,4.60
2008,11,19,02,58,4.60
2008,11,19,02,59,4.70
2008,11,19,03,00,4.80
2008,11,19,03,01,4.90
2008,11,19,03,02,4.90
2008,11,19,03,03,4.90
2008,11,19,03,04,4.90
2008,11,19,03,05,5.00
2008,11,19,03,06,5.10
2008,11,19,03,07,5.10
2008,11,19,03,08,5.20
2008,11,19,03,09,5.30
2008,11,19,03,10,5.30
2008,11,19,03,11,5.40
2008,11,19,03,12,5.50
2008,11,19,03,13,5.60
2008,11,19,03,14,5.60
2008,11,19,03,15,5.70
2008,11,19,03,16,5.80
2008,11,19,03,17,5.80
2008,11,19,03,18,5.90
2008,11,19,03,19,6.00
2008,11,19,03,20,6.00
2008,11,19,03,21,6.10
2008,11,19,03,22,6.10
2008,11,19,03,23,6.10
2008,11,19,03,24,6.20
2008,11,19,03,25,6.20
2008,11,19,03,26,6.20
2008,11,19,03,27,6.30
2008,11,19,03,28,6.40
2008,11,19,03,29,6.40
2008,11,19,03,30,6.50
2008,11,19,03,31,6.60
2008,11,19,03,32,6.60
2008,11,19,03,33,6.60
2008,11,19,03,34,6.70
2008,11,19,03,35,6.70
2008,11,19,03,36,6.80
2008,11,19,03,37,6.80
2008,11,19,03,38,6.80
2008,11,19,03,39,6.90
2008,11,19,03,40,6.90
2008,11,19,03,41,7.00
2008,11,19,03,42,7.00
2008,11,19,03,43,7.00
2008,11,19,03,44,7.00
2008,11,19,03,45,7.00
2008,11,19,03,46,7.00
2008,11,19,03,47,7.10
2008,11,19,03,48,7.10
2008,11,19,03,49,7.10
2008,11,19,03,50,7.10
2008,11,19,03,51,7.10
2008,11,19,03,52,7.20
2008,11,19,03,53,7.20
2008,11,19,03,54,7.20
2008,11,19,03,55,7.20
2008,11,19,03,56,7.20
2008,11,19,03,57,7.10
2008,11,19,03,58,7.20
2008,11,19,03,59,7.20
2008,11,19,04,00,7.20
2008,11,19,04,01,7.20
2008,11,19,04,02,7.20
2008,11,19,04,03,7.20
2008,11,19,04,04,7.20
2008,11,19,04,05,7.20
2008,11,19,04,06,7.20
2008,11,19,04,07,7.30
2008,11,19,04,08,7.30
2008,11,19,04,09,7.30
2008,11,19,04,10,7.30
2008,11,19,04,11,7.30
2008,11,19,04,12,7.30
2008,11,19,04,13,7.30
2008,11,19,04,14,7.30
2008,11,19,04,15,7.30
2008,11,19,04,16,7.30
2008,11,19,04,17,7.30
2008,11,19,04,18,7.30
2008,11,19,04,19,7.30
2008,11,19,04,20,7.40
2008,11,19,04,21,7.40
2008,11,19,04,22,7.40
2008,11,19,04,23,7.40
2008,11,19,04,24,7.40
2008,11,19,04,25,7.30
2008,11,19,04,26,7.30
2008,11,19,04,27,7.30
2008,11,19,04,28,7.30
2008,11,19,04,29,7.30
2008,11,19,04,30,7.30
2008,11,19,04,31,7.30
2008,11,19,04,32,7.30
2008,11,19,04,33,7.30
2008,11,19,04,34,7.30
2008,11,19,04,35,7.30
2008,11,19,04,36,7.30
2008,11,19,04,37,7.30
2008,11,19,04,38,7.30
2008,11,19,04,39,7.30
2008,11,19,04,40,7.40
2008,11,19,04,41,7.40
2008,11,19,04,42,7.40
2008,11,19,04,43,7.40
2008,11,19,04,44,7.40
2008,11,19,04,45,7.40
2008,11,19,04,46,7.40
2008,11,19,04,47,7.40
2008,11,19,04,48,7.30
2008,11,19,04,49,7.30
2008,11,19,04,50,7.30
2008,11,19,04,51,7.30
2008,11,19,04,52,7.30
2008,11,19,04,53,7.30
2008,11,19,04,54,7.30
2008,11,19,04,55,7.30
2008,11,19,04,56,7.30
2008,11,19,04,57,7.30
2008,11,19,04,58,7.30
2008,11,19,04,59,7.30
2008,11,19,05,00,7.30
2008,11,19,05,01,7.30
2008,11,19,05,02,7.30
2008,11,19,05,03,7.30
2008,11,19,05,04,7.30
2008,11,19,05,05,7.30
2008,11,19,05,06,7.30
2008,11,19,05,07,7.30
2008,11,19,05,08,7.30
2008,11,19,05,09,7.30
2008,11,19,05,10,7.30
2008,11,19,05,11,7.20
2008,11,19,05,12,7.20
2008,11,19,05,13,7.20
2008,11,19,05,14,7.20
2008,11,19,05,15,7.20
2008,11,19,05,16,7.10
2008,11,19,05,17,7.10
2008,11,19,05,18,7.10
2008,11,19,05,19,7.10
2008,11,19,05,20,7.20
2008,11,19,05,21,7.20
2008,11,19,05,22,7.20
2008,11,19,05,23,7.20
2008,11,19,05,24,7.20
2008,11,19,05,25,7.20
2008,11,19,05,26,7.20
2008,11,19,05,27,7.10
2008,11,19,05,28,7.10
2008,11,19,05,29,7.10
2008,11,19,05,30,7.20
2008,11,19,05,31,7.20
2008,11,19,05,32,7.20
2008,11,19,05,33,7.20
2008,11,19,05,34,7.20
2008,11,19,05,35,7.20
2008,11,19,05,36,7.30
2008,11,19,05,37,7.30
2008,11,19,05,38,7.30
2008,11,19,05,39,7.30
2008,11,19,05,40,7.30
2008,11,19,05,41,7.30
2008,11,19,05,42,7.30
2008,11,19,05,43,7.30
2008,11,19,05,44,7.30
2008,11,19,05,45,7.30
2008,11,19,05,46,7.30
2008,11,19,05,47,7.30
2008,11,19,05,48,7.30
2008,11,19,05,49,7.30
2008,11,19,05,50,7.30
2008,11,19,05,51,7.30
2008,11,19,05,52,7.30
2008,11,19,05,53,7.30
2008,11,19,05,54,7.30
2008,11,19,05,55,7.30
2008,11,19,05,56,7.30
2008,11,19,05,57,7.30
2008,11,19,05,58,7.30
2008,11,19,05,59,7.30
2008,11,19,06,00,7.30
2008,11,19,06,01,7.30
2008,11,19,06,02,7.30
2008,11,19,06,03,7.30
2008,11,19,06,04,7.30
2008,11,19,06,05,7.30
2008,11,19,06,06,7.30
2008,11,19,06,07,7.30
2008,11,19,06,08,7.30
2008,11,19,06,09,7.30
2008,11,19,06,10,7.30
2008,11,19,06,11,7.30
2008,11,19,06,12,7.30
2008,11,19,06,13,7.30
2008,11,19,06,14,7.30
2008,11,19,06,15,7.30
2008,11,19,06,16,7.30
2008,11,19,06,17,7.30
2008,11,19,06,18,7.30
2008,11,19,06,19,7.30
2008,11,19,06,20,7.30
2008,11,19,06,21,7.30
2008,11,19,06,22,7.30
2008,11,19,06,23,7.30
2008,11,19,06,24,7.30
2008,11,19,06,25,7.30
2008,11,19,06,26,7.30
2008,11,19,06,27,7.30
2008,11,19,06,28,7.30
2008,11,19,06,29,7.30
2008,11,19,06,30,7.30
2008,11,19,06,31,7.30
2008,11,19,06,32,7.30
2008,11,19,06,33,7.30
2008,11,19,06,34,7.30
2008,11,19,06,35,7.30
2008,11,19,06,36,7.30
2008,11,19,06,37,7.30
2008,11,19,06,38,7.30
2008,11,19,06,39,7.40
2008,11,19,06,40,7.40
2008,11,19,06,41,7.40
2008,11,19,06,42,7.40
2008,11,19,06,43,7.40
2008,11,19,06,44,7.40
2008,11,19,06,45,7.40
2008,11,19,06,46,7.40
2008,11,19,06,47,7.40
2008,11,19,06,48,7.40
2008,11,19,06,49,7.40
2008,11,19,06,50,7.40
2008,11,19,06,51,7.30
2008,11,19,06,52,7.30
2008,11,19,06,53,7.30
2008,11,19,06,54,7.30
2008,11,19,06,55,7.30
2008,11,19,06,56,7.40
2008,11,19,06,57,7.40
2008,11,19,06,58,7.40
2008,11,19,06,59,7.30
2008,11,19,07,00,7.30
2008,11,19,07,01,7.30
2008,11,19,07,02,7.30
2008,11,19,07,03,7.30
2008,11,19,07,04,7.30
2008,11,19,07,05,7.30
2008,11,19,07,06,7.40
2008,11,19,07,07,7.40
2008,11,19,07,08,7.40
2008,11,19,07,09,7.40
2008,11,19,07,10,7.40
2008,11,19,07,11,7.30
2008,11,19,07,12,7.30
2008,11,19,07,13,7.30
2008,11,19,07,14,7.30
2008,11,19,07,15,7.30
2008,11,19,07,16,7.30
2008,11,19,07,17,7.30
2008,11,19,07,18,7.30
2008,11,19,07,19,7.30
2008,11,19,07,20,7.30
2008,11,19,07,21,7.30
2008,11,19,07,22,7.40
2008,11,19,07,23,7.40
2008,11,19,07,24,7.40
2008,11,19,07,25,7.50
2008,11,19,07,26,7.50
2008,11,19,07,27,7.50
2008,11,19,07,28,7.40
2008,11,19,07,29,7.40
2008,11,19,07,30,7.40
2008,11,19,07,31,7.40
2008,11,19,07,32,7.40
2008,11,19,07,33,7.40
2008,11,19,07,34,7.50
2008,11,19,07,35,7.50
2008,11,19,07,36,7.50
2008,11,19,07,37,7.50
2008,11,19,07,38,7.50
2008,11,19,07,39,7.50
2008,11,19,07,40,7.50
2008,11,19,07,41,7.50
2008,11,19,07,42,7.50
2008,11,19,07,43,7.50
2008,11,19,07,44,7.50
2008,11,19,07,45,7.50
2008,11,19,07,46,7.60
2008,11,19,07,47,7.60
2008,11,19,07,48,7.60
2008,11,19,07,49,7.60
2008,11,19,07,50,7.60
2008,11,19,07,51,7.60
2008,11,19,07,52,7.60
2008,11,19,07,53,7.60
2008,11,19,07,54,7.60
2008,11,19,07,55,7.50
2008,11,19,07,56,7.50
2008,11,19,07,57,7.60
2008,11,19,07,58,7.60
2008,11,19,07,59,7.60
2008,11,19,08,00,7.60
2008,11,19,08,01,7.60
2008,11,19,08,02,7.60
2008,11,19,08,03,7.60
2008,11,19,08,04,7.60
2008,11,19,08,05,7.60
2008,11,19,08,06,7.60
2008,11,19,08,07,7.60
2008,11,19,08,08,7.60
2008,11,19,08,09,7.60
2008,11,19,08,10,7.60
2008,11,19,08,11,7.60
2008,11,19,08,12,7.60
2008,11,19,08,13,7.60
2008,11,19,08,14,7.60
2008,11,19,08,15,7.60
2008,11,19,08,16,7.60
2008,11,19,08,17,7.60
2008,11,19,08,18,7.60
2008,11,19,08,19,7.60
2008,11,19,08,20,7.60
2008,11,19,08,21,7.60
2008,11,19,08,22,7.60
2008,11,19,08,23,7.70
2008,11,19,08,24,7.70
2008,11,19,08,25,7.60
2008,11,19,08,26,7.70
2008,11,19,08,27,7.70
2008,11,19,08,28,7.70
2008,11,19,08,29,7.70
2008,11,19,08,30,7.70
2008,11,19,08,31,7.70
2008,11,19,08,32,7.80
2008,11,19,08,33,7.80
2008,11,19,08,34,7.80
2008,11,19,08,35,7.80
2008,11,19,08,36,7.80
2008,11,19,08,37,7.80
2008,11,19,08,38,7.90
2008,11,19,08,39,7.90
2008,11,19,08,40,7.90
2008,11,19,08,41,7.90
2008,11,19,08,42,8.00
2008,11,19,08,43,8.00
2008,11,19,08,44,8.10
2008,11,19,08,45,8.10
2008,11,19,08,46,8.20
2008,11,19,08,47,8.20
2008,11,19,08,48,8.20
2008,11,19,08,49,8.20
2008,11,19,08,50,8.20
2008,11,19,08,51,8.20
2008,11,19,08,52,8.20
2008,11,19,08,53,8.30
2008,11,19,08,54,8.30
2008,11,19,08,55,8.30
2008,11,19,08,56,8.40
2008,11,19,08,57,8.40
2008,11,19,08,58,8.40
2008,11,19,08,59,8.40
2008,11,19,09,00,8.50
2008,11,19,09,01,8.50
2008,11,19,09,02,8.50
2008,11,19,09,03,8.50
2008,11,19,09,04,8.50
2008,11,19,09,05,8.50
2008,11,19,09,06,8.50
2008,11,19,09,07,8.60
2008,11,19,09,08,8.60
2008,11,19,09,09,8.60
2008,11,19,09,10,8.60
2008,11,19,09,11,8.70
2008,11,19,09,12,8.70
2008,11,19,09,13,8.70
2008,11,19,09,14,8.70
2008,11,19,09,15,8.70
2008,11,19,09,16,8.70
2008,11,19,09,17,8.70
2008,11,19,09,18,8.80
2008,11,19,09,19,8.80
2008,11,19,09,20,8.80
2008,11,19,09,21,8.80
2008,11,19,09,22,8.80
2008,11,19,09,23,8.80
2008,11,19,09,24,8.90
2008,11,19,09,25,8.90
2008,11,19,09,26,8.90
2008,11,19,09,27,8.90
2008,11,19,09,28,8.90
2008,11,19,09,29,9.00
2008,11,19,09,30,9.00
2008,11,19,09,31,9.00
2008,11,19,09,32,9.00
2008,11,19,09,33,9.10
2008,11,19,09,34,9.10
2008,11,19,09,35,9.10
2008,11,19,09,36,9.10
2008,11,19,09,37,9.10
2008,11,19,09,38,9.20
2008,11,19,09,39,9.20
2008,11,19,09,40,9.20
2008,11,19,09,41,9.20
2008,11,19,09,42,9.20
2008,11,19,09,43,9.20
2008,11,19,09,44,9.30
2008,11,19,09,45,9.30
2008,11,19,09,46,9.30
2008,11,19,09,47,9.30
2008,11,19,09,48,9.40
2008,11,19,09,49,9.40
2008,11,19,09,50,9.40
2008,11,19,09,51,9.40
2008,11,19,09,52,9.40
2008,11,19,09,53,9.40
2008,11,19,09,54,9.50
2008,11,19,09,55,9.50
2008,11,19,09,56,9.50
2008,11,19,09,57,9.50
2008,11,19,09,58,9.60
2008,11,19,09,59,9.60
2008,11,19,10,00,9.70
2008,11,19,10,01,9.70
2008,11,19,10,02,9.70
2008,11,19,10,03,9.80
2008,11,19,10,04,9.80
2008,11,19,10,05,9.80
2008,11,19,10,06,9.90
2008,11,19,10,07,9.90
2008,11,19,10,08,9.90
2008,11,19,10,09,9.90
2008,11,19,10,10,9.90
2008,11,19,10,11,9.90
2008,11,19,10,12,9.90
2008,11,19,10,13,9.90
2008,11,19,10,14,9.90
2008,11,19,10,15,9.90
2008,11,19,10,16,9.90
2008,11,19,10,17,9.90
2008,11,19,10,18,9.90
2008,11,19,10,19,9.90
2008,11,19,10,20,10.10
2008,11,19,10,21,10.10
2008,11,19,10,22,10.10
2008,11,19,10,23,10.10
2008,11,19,10,24,10.10
2008,11,19,10,25,10.10
2008,11,19,10,26,10.10
2008,11,19,10,27,10.10
2008,11,19,10,28,10.10
2008,11,19,10,29,10.10
2008,11,19,10,30,10.10
2008,11,19,10,31,10.10
2008,11,19,10,32,10.20
2008,11,19,10,33,10.20
2008,11,19,10,34,10.20
2008,11,19,10,35,10.30
2008,11,19,10,36,10.30
2008,11,19,10,37,10.30
2008,11,19,10,38,10.30
2008,11,19,10,39,10.30
2008,11,19,10,40,10.40
2008,11,19,10,41,10.40
2008,11,19,10,42,10.40
2008,11,19,10,43,10.40
2008,11,19,10,44,10.40
2008,11,19,10,45,10.50
2008,11,19,10,46,10.60
2008,11,19,10,47,10.60
2008,11,19,10,48,10.60
2008,11,19,10,49,10.60
2008,11,19,10,50,10.60
2008,11,19,10,51,10.70
2008,11,19,10,52,10.70
2008,11,19,10,53,10.70
2008,11,19,10,54,10.80
2008,11,19,10,55,10.80
2008,11,19,10,56,10.80
2008,11,19,10,57,10.90
2008,11,19,10,58,10.90
2008,11,19,10,59,10.90
2008,11,19,11,00,10.90
2008,11,19,11,01,10.90
2008,11,19,11,02,10.90
2008,11,19,11,03,10.90
2008,11,19,11,04,10.90
2008,11,19,11,05,10.90
2008,11,19,11,06,11.00
2008,11,19,11,07,11.10
2008,11,19,11,08,11.10
2008,11,19,11,09,11.10
2008,11,19,11,10,11.10
2008,11,19,11,11,11.20
2008,11,19,11,12,11.20
2008,11,19,11,13,11.20
2008,11,19,11,14,11.20
2008,11,19,11,15,11.20
2008,11,19,11,16,11.20
2008,11,19,11,17,11.20
2008,11,19,11,18,11.20
2008,11,19,11,19,11.20
2008,11,19,11,20,11.20
2008,11,19,11,21,11.10
2008,11,19,11,22,11.10
2008,11,19,11,23,11.10
2008,11,19,11,24,11.10
2008,11,19,11,25,11.10
2008,11,19,11,26,11.10
2008,11,19,11,27,11.10
2008,11,19,11,28,11.10
2008,11,19,11,29,11.10
2008,11,19,11,30,11.10
2008,11,19,11,31,11.10
2008,11,19,11,32,11.20
2008,11,19,11,33,11.20
2008,11,19,11,34,11.20
2008,11,19,11,35,11.20
2008,11,19,11,36,11.20
2008,11,19,11,37,11.30
2008,11,19,11,38,11.30
2008,11,19,11,39,11.30
2008,11,19,11,40,11.30
2008,11,19,11,41,11.30
2008,11,19,11,42,11.30
2008,11,19,11,43,11.30
2008,11,19,11,44,11.30
2008,11,19,11,45,11.30
2008,11,19,11,46,11.30
2008,11,19,11,47,11.30
2008,11,19,11,48,11.30
2008,11,19,11,49,11.30
2008,11,19,11,50,11.30
2008,11,19,11,51,11.30
2008,11,19,11,52,11.30
2008,11,19,11,53,11.40
2008,11,19,11,54,11.40
2008,11,19,11,55,11.40
2008,11,19,11,56,11.40
2008,11,19,11,57,11.40
2008,11,19,11,58,11.40
2008,11,19,11,59,11.40
2008,11,19,12,00,11.40
2008,11,19,12,01,11.40
2008,11,19,12,02,11.60
2008,11,19,12,03,11.60
2008,11,19,12,04,11.60
2008,11,19,12,05,11.60
2008,11,19,12,06,11.60
2008,11,19,12,07,11.60
2008,11,19,12,08,11.60
2008,11,19,12,09,11.60
2008,11,19,12,10,11.60
2008,11,19,12,11,11.60
2008,11,19,12,12,11.60
2008,11,19,12,13,11.60
2008,11,19,12,14,11.60
2008,11,19,12,15,11.60
2008,11,19,12,16,11.60
2008,11,19,12,17,11.60
2008,11,19,12,18,11.60
2008,11,19,12,19,11.60
2008,11,19,12,20,11.60
2008,11,19,12,21,11.60
2008,11,19,12,22,11.60
2008,11,19,12,23,11.60
2008,11,19,12,24,11.60
2008,11,19,12,25,11.60
2008,11,19,12,26,11.60
2008,11,19,12,27,11.60
2008,11,19,12,28,11.60
2008,11,19,12,29,11.70
2008,11,19,12,30,11.70
2008,11,19,12,31,11.70
2008,11,19,12,32,11.80
2008,11,19,12,33,11.80
2008,11,19,12,34,11.80
2008,11,19,12,35,11.70
2008,11,19,12,36,11.70
2008,11,19,12,37,11.70
2008,11,19,12,38,11.70
2008,11,19,12,39,11.70
2008,11,19,12,40,11.80
2008,11,19,12,41,11.80
2008,11,19,12,42,11.80
2008,11,19,12,43,11.80
2008,11,19,12,44,11.80
2008,11,19,12,45,11.80
2008,11,19,12,46,11.80
2008,11,19,12,47,11.80
2008,11,19,12,48,11.80
2008,11,19,12,49,11.90
2008,11,19,12,50,11.90
2008,11,19,12,51,11.90
2008,11,19,12,52,11.90
2008,11,19,12,53,11.90
2008,11,19,12,54,11.90
2008,11,19,12,55,12.00
2008,11,19,12,56,12.00
2008,11,19,12,57,12.00
2008,11,19,12,58,12.00
2008,11,19,12,59,12.00
2008,11,19,13,00,12.00
2008,11,19,13,01,12.00
2008,11,19,13,02,12.00
2008,11,19,13,03,11.90
2008,11,19,13,04,11.90
2008,11,19,13,05,11.90
2008,11,19,13,06,11.90
2008,11,19,13,07,11.90
2008,11,19,13,08,11.90
2008,11,19,13,09,11.90
2008,11,19,13,10,11.90
2008,11,19,13,11,11.90
2008,11,19,13,12,11.90
2008,11,19,13,13,12.00
2008,11,19,13,14,12.00
2008,11,19,13,15,12.00
2008,11,19,13,16,12.00
2008,11,19,13,17,12.00
2008,11,19,13,18,12.00
2008,11,19,13,19,12.00
2008,11,19,13,20,12.00
2008,11,19,13,21,12.00
2008,11,19,13,22,12.10
2008,11,19,13,23,12.10
2008,11,19,13,24,12.10
2008,11,19,13,25,12.10
2008,11,19,13,26,12.10
2008,11,19,13,27,12.10
2008,11,19,13,28,12.10
2008,11,19,13,29,12.10
2008,11,19,13,30,12.10
2008,11,19,13,31,12.10
2008,11,19,13,32,12.10
2008,11,19,13,33,12.10
2008,11,19,13,34,12.10
2008,11,19,13,35,12.10
2008,11,19,13,36,12.10
2008,11,19,13,37,12.10
2008,11,19,13,38,12.10
2008,11,19,13,39,12.10
2008,11,19,13,40,12.10
2008,11,19,13,41,12.10
2008,11,19,13,42,12.10
2008,11,19,13,43,12.10
2008,11,19,13,44,12.10
2008,11,19,13,45,12.10
2008,11,19,13,46,12.20
2008,11,19,13,47,12.20
2008,11,19,13,48,12.20
2008,11,19,13,49,12.20
2008,11,19,13,50,12.20
2008,11,19,13,51,12.30
2008,11,19,13,52,12.30
2008,11,19,13,53,12.20
2008,11,19,13,54,12.20
2008,11,19,13,55,12.20
2008,11,19,13,56,12.20
2008,11,19,13,57,12.20
2008,11,19,13,58,12.20
2008,11,19,13,59,12.20
2008,11,19,14,00,12.20
2008,11,19,14,01,12.20
2008,11,19,14,02,12.20
2008,11,19,14,03,12.30
2008,11,19,14,04,12.30
2008,11,19,14,05,12.20
2008,11,19,14,06,12.20
2008,11,19,14,07,12.20
2008,11,19,14,08,12.20
2008,11,19,14,09,12.10
2008,11,19,14,10,12.10
2008,11,19,14,11,12.10
2008,11,19,14,12,12.20
2008,11,19,14,13,12.20
2008,11,19,14,14,12.20
2008,11,19,14,15,12.20
2008,11,19,14,16,12.20
2008,11,19,14,17,12.20
2008,11,19,14,18,12.10
2008,11,19,14,19,12.20
2008,11,19,14,20,12.20
2008,11,19,14,21,12.20
2008,11,19,14,22,12.20
2008,11,19,14,23,12.20
2008,11,19,14,24,12.20
2008,11,19,14,25,12.20
2008,11,19,14,26,12.10
2008,11,19,14,27,12.10
2008,11,19,14,28,12.20
2008,11,19,14,29,12.20
2008,11,19,14,30,12.20
2008,11,19,14,31,12.20
2008,11,19,14,32,12.20
2008,11,19,14,33,12.20
2008,11,19,14,34,12.20
2008,11,19,14,35,12.20
2008,11,19,14,36,12.20
2008,11,19,14,37,12.20
2008,11,19,14,38,12.20
2008,11,19,14,39,12.20
2008,11,19,14,40,12.20
2008,11,19,14,41,12.20
2008,11,19,14,42,12.20
2008,11,19,14,43,12.20
2008,11,19,14,44,12.10
2008,11,19,14,45,12.10
2008,11,19,14,46,12.10
2008,11,19,14,47,12.20
2008,11,19,14,48,12.20
2008,11,19,14,49,12.20
2008,11,19,14,50,12.20
2008,11,19,14,51,12.20
2008,11,19,14,52,12.10
2008,11,19,14,53,12.10
2008,11,19,14,54,12.10
2008,11,19,14,55,12.10
2008,11,19,14,56,12.10
2008,11,19,14,57,12.10
2008,11,19,14,58,12.10
2008,11,19,14,59,12.10
2008,11,19,15,00,12.10
2008,11,19,15,01,12.10
2008,11,19,15,02,12.10
2008,11,19,15,03,12.10
2008,11,19,15,04,12.10
2008,11,19,15,05,12.00
2008,11,19,15,06,12.00
2008,11,19,15,07,12.00
2008,11,19,15,08,12.00
2008,11,19,15,09,12.00
2008,11,19,15,10,12.00
2008,11,19,15,11,12.00
2008,11,19,15,12,12.00
2008,11,19,15,13,11.90
2008,11,19,15,14,11.90
2008,11,19,15,15,11.90
2008,11,19,15,16,11.90
2008,11,19,15,17,11.90
2008,11,19,15,18,11.90
2008,11,19,15,19,11.90
2008,11,19,15,20,11.90
2008,11,19,15,21,11.90
2008,11,19,15,22,11.90
2008,11,19,15,23,11.90
2008,11,19,15,24,11.90
2008,11,19,15,25,11.80
2008,11,19,15,26,11.80
2008,11,19,15,27,11.80
2008,11,19,15,28,11.80
2008,11,19,15,29,11.80
2008,11,19,15,30,11.80
2008,11,19,15,31,11.70
2008,11,19,15,32,11.70
2008,11,19,15,33,11.70
2008,11,19,15,34,11.60
2008,11,19,15,35,11.60
2008,11,19,15,36,11.60
2008,11,19,15,37,11.60
2008,11,19,15,38,11.60
2008,11,19,15,39,11.60
2008,11,19,15,40,11.60
2008,11,19,15,41,11.60
2008,11,19,15,42,11.60
2008,11,19,15,43,11.50
2008,11,19,15,44,11.40
2008,11,19,15,45,11.40
2008,11,19,15,46,11.40
2008,11,19,15,47,11.40
2008,11,19,15,48,11.30
2008,11,19,15,49,11.30
2008,11,19,15,50,11.30
2008,11,19,15,51,11.20
2008,11,19,15,52,11.20
2008,11,19,15,53,11.10
2008,11,19,15,54,11.10
2008,11,19,15,55,11.10
2008,11,19,15,56,11.10
2008,11,19,15,57,11.10
2008,11,19,15,58,11.00
2008,11,19,15,59,10.90
2008,11,19,16,00,10.90
2008,11,19,16,01,10.90
2008,11,19,16,02,10.90
2008,11,19,16,03,10.80
2008,11,19,16,04,10.80
2008,11,19,16,05,10.70
2008,11,19,16,06,10.70
2008,11,19,16,07,10.70
2008,11,19,16,08,10.60
2008,11,19,16,09,10.60
2008,11,19,16,10,10.60
2008,11,19,16,11,10.60
2008,11,19,16,12,10.60
2008,11,19,16,13,10.50
2008,11,19,16,14,10.40
2008,11,19,16,15,10.40
2008,11,19,16,16,10.40
2008,11,19,16,17,10.40
2008,11,19,16,18,10.30
2008,11,19,16,19,10.30
2008,11,19,16,20,10.30
2008,11,19,16,21,10.30
2008,11,19,16,22,10.30
2008,11,19,16,23,10.30
2008,11,19,16,24,10.30
2008,11,19,16,25,10.30
2008,11,19,16,26,10.30
2008,11,19,16,27,10.30
2008,11,19,16,28,10.20
2008,11,19,16,29,10.20
2008,11,19,16,30,10.20
2008,11,19,16,31,10.10
2008,11,19,16,32,10.10
2008,11,19,16,33,10.10
2008,11,19,16,34,10.10
2008,11,19,16,35,10.10
2008,11,19,16,36,10.10
2008,11,19,16,37,10.10
2008,11,19,16,38,10.10
2008,11,19,16,39,10.10
2008,11,19,16,40,10.00
2008,11,19,16,41,9.90
2008,11,19,16,42,9.90
2008,11,19,16,43,9.90
2008,11,19,16,44,9.90
2008,11,19,16,45,9.90
2008,11,19,16,46,10.00
2008,11,19,16,47,10.10
2008,11,19,16,48,10.00
2008,11,19,16,49,9.90
2008,11,19,16,50,9.90
2008,11,19,16,51,9.90
2008,11,19,16,52,9.90
2008,11,19,16,53,9.90
2008,11,19,16,54,9.90
2008,11,19,16,55,9.90
2008,11,19,16,56,9.90
2008,11,19,16,57,9.90
2008,11,19,16,58,9.90
2008,11,19,16,59,9.90
2008,11,19,17,00,9.90
2008,11,19,17,01,9.90
2008,11,19,17,02,9.90
2008,11,19,17,03,9.90
2008,11,19,17,04,9.90
2008,11,19,17,05,9.90
2008,11,19,17,06,9.90
2008,11,19,17,07,9.90
2008,11,19,17,08,9.90
2008,11,19,17,09,9.90
2008,11,19,17,10,9.90
2008,11,19,17,11,9.80
2008,11,19,17,12,9.80
2008,11,19,17,13,9.80
2008,11,19,17,14,9.70
2008,11,19,17,15,9.70
2008,11,19,17,16,9.70
2008,11,19,17,17,9.70
2008,11,19,17,18,9.70
2008,11,19,17,19,9.60
2008,11,19,17,20,9.60
2008,11,19,17,21,9.50
2008,11,19,17,22,9.50
2008,11,19,17,23,9.40
2008,11,19,17,24,9.40
2008,11,19,17,25,9.40
2008,11,19,17,26,9.30
2008,11,19,17,27,9.30
2008,11,19,17,28,9.30
2008,11,19,17,29,9.30
2008,11,19,17,30,9.20
2008,11,19,17,31,9.20
2008,11,19,17,32,9.20
2008,11,19,17,33,9.20
2008,11,19,17,34,9.10
2008,11,19,17,35,9.10
2008,11,19,17,36,9.00
2008,11,19,17,37,9.00
2008,11,19,17,38,9.00
2008,11,19,17,39,9.00
2008,11,19,17,40,9.00
2008,11,19,17,41,9.00
2008,11,19,17,42,9.00
2008,11,19,17,43,9.00
2008,11,19,17,44,9.00
2008,11,19,17,45,9.00
2008,11,19,17,46,9.00
2008,11,19,17,47,9.00
2008,11,19,17,48,9.00
2008,11,19,17,49,8.90
2008,11,19,17,50,9.00
2008,11,19,17,51,9.00
2008,11,19,17,52,9.10
2008,11,19,17,53,9.20
2008,11,19,17,54,9.30
2008,11,19,17,55,9.30
2008,11,19,17,56,9.40
2008,11,19,17,57,9.40
2008,11,19,17,58,9.40
2008,11,19,17,59,9.40
2008,11,19,18,00,9.40
2008,11,19,18,01,9.50
2008,11,19,18,02,9.50
2008,11,19,18,03,9.50
2008,11,19,18,04,9.50
2008,11,19,18,05,9.50
2008,11,19,18,06,9.50
2008,11,19,18,07,9.50
2008,11,19,18,08,9.50
2008,11,19,18,09,9.50
2008,11,19,18,10,9.50
2008,11,19,18,11,9.50
2008,11,19,18,12,9.50
2008,11,19,18,13,9.50
2008,11,19,18,14,9.50
2008,11,19,18,15,9.40
2008,11,19,18,16,9.40
2008,11,19,18,17,9.40
2008,11,19,18,18,9.40
2008,11,19,18,19,9.40
2008,11,19,18,20,9.30
2008,11,19,18,21,9.30
2008,11,19,18,22,9.40
2008,11,19,18,23,9.40
2008,11,19,18,24,9.30
2008,11,19,18,25,9.30
2008,11,19,18,26,9.30
2008,11,19,18,27,9.30
2008,11,19,18,28,9.30
2008,11,19,18,29,9.20
2008,11,19,18,30,9.20
2008,11,19,18,31,9.10
2008,11,19,18,32,9.10
2008,11,19,18,33,9.10
2008,11,19,18,34,9.10
2008,11,19,18,35,9.10
2008,11,19,18,36,9.20
2008,11,19,18,37,9.20
2008,11,19,18,38,9.20